Погода в Бондюге

Россия / Пермский край     60°29′31″N   55°55′44″E
темп.,
°C
ветер,
м/с
пор.,
м/с
влажн.,
%
обл.,
%
осадки,
мм/ч
давл.,
гПа
погр.,
м
24 сентября, пт
пт2423:00+4ююв22880 0.0 102729
02:00+3юв22925 0.0 102725
05:00+2юв23955 0.0 102645
08:00+2юв25919 0.0 1026107
11:00+9юв356446 0.0 1025386
14:00+12юв355497 0.0 1023694
17:00+11юв3664100 0.0 1023602
20:00+7юв388982 0.0 1023159
25 сентября, сб
сб2523:00+7юв3108484 0.0 1023242
02:00+8юв31179100 0.0 1022350
05:00+7вюв31081100 0.0 1022295
08:00+8юв3977100 0.0 1021295
11:00+10юв3116798 0.0 1020512
14:00+12юв3963100 0.0 1019955
17:00+10вюв31075100 0.1 1019548
20:00+10вюв41270100 0.0 1019796
26 сентября, вс
вс2623:00+9вюв41370100 0.0 1019749
02:00+9вюв51270100 0.0 1018559
05:00+8вюв41269100 0.0 1018612
08:00+8юв51268100 0.0 1019698
11:00+7вюв51482100 0.3 1020703
14:00+9вюв51269100 0.0 1021913
17:00+8вюв51171100 0.1 1022991
20:00+7вюв5117598 0.1 1024840
27 сентября, пн
пн2723:00+5вюв41168100 0.1 1025889
02:00+5вюв4106894 0.0 1026623
05:00+3в4116973 0.0 1027453
08:00+3в41170100 0.0 1028520
11:00+6вюв5105536 0.0 1029814
14:00+9вюв47465 0.0 10301123
17:00+8вюв36515 0.0 10301056
20:00+3в2277100 0.0 103129
28 сентября, вт
вт2823:00+2вюв2108197 0.0 1031305
02:00+1вюв1183100 0.0 103222
05:00+1ю1182100 0.0 103215
08:00+2ююв0081100 0.0 103131
11:00+4зсз1171100 0.0 1030315
14:00+6ссз2260100 0.0 1030785
17:00+6с2360100 0.0 10291045
20:00+2ссв11825 0.0 103010